Weather Service Report


617 
ASUS43 KBIS 160720
RWRND 

NORTH DAKOTA REGIONAL WEATHER ROUNDUP
NATIONAL WEATHER SERVICE BISMARCK ND
200 AM CDT WED APR 16 2014

NOTE: "FAIR" INDICATES FEW OR NO CLOUDS BELOW 12,000 FEET WITH NO
SIGNIFICANT WEATHER AND/OR OBSTRUCTIONS TO VISIBILITY.


NDZ001>003-009>011-017-160800-
NORTHWEST NORTH DAKOTA
  
CITY           SKY/WX    TMP DP  RH WIND       PRES   REMARKS
WILLISTON        N/A    N/A N/A N/A MISG      29.83R                  
MINOT          LGT SNOW  24  20  84 E14G22    29.90R FOG     WCI  12  
MINOT AFB      LGT SNOW  23  23 100 E16       29.90R FOG     WCI  10  
$$
 
NDZ018>021-031>035-040>046-160800-
SOUTHWEST NORTH DAKOTA
  
CITY           SKY/WX    TMP DP  RH WIND       PRES   REMARKS
BISMARCK       CLOUDY    30  16  56 E21G30    29.78R WCI  17          
DICKINSON      CLOUDY    28  18  66 NE14      29.70R WCI  17          
GARRISON         N/A     27  21  78 E18G29    29.82R WCI  14          
HETTINGER ARPT CLOUDY    33  23  66 E9        29.66R                  
$$
 
NDZ004>008-012>016-024-026-027-054-160800-
NORTHEAST NORTH DAKOTA
  
CITY           SKY/WX    TMP DP  RH WIND       PRES   REMARKS
GRAND FORKS    CLOUDY    29  12  49 E15       29.97S WCI  18          
GRND FRKS AFB  CLOUDY    29  13  51 E13       30.01R WCI  18          
DEVILS LAKE    CLOUDY    27  14  59 E17G24    29.95S WCI  14          
$$
 
NDZ022-023-025-028>030-036>039-047>053-160800-
SOUTHEAST NORTH DAKOTA
  
CITY           SKY/WX    TMP DP  RH WIND       PRES   REMARKS
FARGO          LGT SNOW  30  23  75 E15       29.96F WCI  19          
JAMESTOWN      CLOUDY    27  23  85 E22G30    29.85F WCI  13          
$$ 



618 
ASUS43 KBIS 160720
RWRBIS

NWR BROADCAST TEXT
NATIONAL WEATHER SERVICE BISMARCK ND
200 AM CDT WED APR 16 2014

NOTE: "FAIR" INDICATES FEW OR NO CLOUDS BELOW 12,000 FEET WITH NO
SIGNIFICANT WEATHER AND/OR OBSTRUCTIONS TO VISIBILITY.

  
CITY           SKY/WX    TMP DP  RH WIND       PRES   REMARKS
WILLISTON        N/A    N/A N/A N/A MISG      29.83R                  
MINOT          LGT SNOW  24  20  84 E14G22    29.90R FOG     WCI  12  
MINOT AFB      LGT SNOW  23  23 100 E16       29.90R FOG     WCI  10  
BISMARCK       CLOUDY    30  16  56 E21G30    29.78R WCI  17          
DICKINSON      CLOUDY    28  18  66 NE14      29.70R WCI  17          
GARRISON         N/A     27  21  78 E18G29    29.82R WCI  14          
HETTINGER ARPT CLOUDY    33  23  66 E9        29.66R                  
JAMESTOWN      CLOUDY    27  23  85 E22G30    29.85F WCI  13          
CARRINGTON     CLOUDY    25  25 100 E20G26    29.89S FOG     WCI  11  
CROSBY         LGT SNOW  25  25 100 E20G28    29.90R WCI  11          
HARVEY         CLOUDY    25  25 100 E20G28    29.89S FOG     WCI  11  
HAZEN          CLOUDY    27  19  74 E12G21    29.82R WCI  16          
LINTON         FAIR      32  16  51 E22G30    29.71R WCI  19          
MANDAN         CLOUDY    28  16  59 E26       29.76R WCI  13          
OAKES          FAIR      32  16  51 E24       29.82R WCI  19          
RUGBY          PTSUNNY   25  23  93 E18G26    29.93R FOG     WCI  11  
STANLEY        LGT SNOW  25  25 100 E20G25    29.84R WCI  11          
TIOGA          LGT SNOW  25  25 100 E18G24    29.86R WCI  11          
WATFORD CITY   PTSUNNY   27  19  74 E17       29.78R WCI  14          
$$
  
CITY           SKY/WX    TMP DP  RH WIND       PRES   REMARKS
GRAND FORKS    CLOUDY    29  12  49 E15       29.97S WCI  18          
GRAND FORKS AF CLOUDY    29  13  51 E13       30.01R WCI  18          
DEVILS LAKE    CLOUDY    27  14  59 E17G24    29.95S WCI  14          
FARGO          LGT SNOW  30  23  75 E15       29.96F WCI  19          
CANDO          LGT SNOW  25  21  86 E16G22    29.98R WCI  12          
CAVALIER       FAIR      27  14  59 E10       30.06R WCI  17          
GRAFTON        PTSUNNY   27  16  63 E12       30.04S WCI  16          
GWINNER        SUNNY     32  18  55 E21G28    29.85F WCI  20          
LANGDON        CLOUDY    25  14  63 E13G22    30.00R WCI  13          
ROLLA          LGT SNOW  23  21  93 E13G20    29.98R WCI  11          
WALHALLA       FAIR      27  16  63 E9        30.07R WCI  17          
$$
  
CITY           SKY/WX    TMP DP  RH WIND       PRES   REMARKS
ABERDEEN       CLOUDY    32  20  61 E18       29.74F                  
MOBRIDGE       CLOUDY    34  19  54 E28G36    29.64R                  
BUFFALO          N/A     38  25  59 NE10      29.57S                  
RAPID CITY     CLOUDY    41  38  89 NW18G26   29.60S                  
GLASGOW        PTCLDY    31  20  63 NE17      29.78R WCI  19          
SIDNEY         CLOUDY    34  19  55 NE13      29.79R                  
WOLF POINT     MOCLDY    32  19  58 NE13      29.79R                  
GLENDIVE       CLOUDY    36  21  55 N9        29.72R                  
MILES CITY     CLOUDY    42  26  53 NE7       29.68R                  
BAKER          CLOUDY    44  28  53 W9        29.63R                  
$$
  
CITY           SKY/WX    TMP DP  RH WIND       PRES   REMARKS
BILLINGS       CLOUDY    40  31  70 NW18      29.81R                  
GREAT FALLS    CLOUDY    36  36 100 SW5       29.87S                  
REGINA         FLURRIES  23  19  86 E20       29.96R WCI   8          
ESTEVAN        FLURRIES  25  21  86 E21G28    29.92  WCI  10          
$$


Return to Home page


Western Regional Climate Center, wrcc@dri.edu